User: anonymous
Location: Cluny
(50.9333°N, 112.8167°W)
Time: 01:31:42
(UTC-06:00)
Language:

Hamsat - Orbit

View from above orbital plane
View from above orbital plane
View from above satellite
View from above satellite

Ground track
Ground track

The orbit data is extracted from the following two-line orbital elements,

1 28650U 05017B   14243.45593834  .00001159  00000-0  13892-3 0  8305
2 28650 097.5630 244.6766 0023352 268.5216 091.3325 14.85704613504408
Epoch (UTC): 31 August 2014 10:56:33
Eccentricity: 0.0023352
inclination: 97.5630°
perigee height: 595 km
apogee height: 628 km
right ascension of ascending node: 244.6766°
argument of perigee: 268.5216°
revolutions per day: 14.85704613
mean anomaly at epoch: 91.3325°
orbit number at epoch: 50440

The dashed part of the orbit path shows where the satellite is in the earth's shadow,  

DLR